星链-1123 (STARLINK-1123 )

导读 | 星芒AI

STARLINK-1123 是 SpaceX 星链计划中的一颗低轨通信卫星,属于第 11 批发射的星链卫星群。该卫星于 2021 年 10 月 28 日由猎鹰 9 号火箭从美国卡纳维拉尔角发射升空。它运行在约 550 公里的轨道高度,旨在为全球提供高速互联网服务。STARLINK-1123 采用先进推进系统和激光通信技术,支持星间通信,提高网络效率与稳定性,是 SpaceX 构建全球宽带网络的重要组成部分。

基本信息
目录编号:
44930
目录名称:
STARLINK-1123
国际标识:
2020-001S
轨道中心:
EARTH
卫星名称:
星链-1123
卫星全名:
星链-1123 (STARLINK-1123 )
卫星状态:
在轨 (已飞行2122 天)
发射日期:
2020-01-07 UTC
国别 :
美国 (US)
星等 :
--
轨道信息
数据来源 国际轨道数据
星历时间: 2025-10-28T19:51:22+0800
22小时前
查看轨道信息
半长轴: 6925.329km
偏心率: 0.000139
轨道倾角: 53.053°
近地点辐角 88.836°
升交点赤经 220.069°
平近点角 271.279°
近地点: 546.231km
远地点: 548.157km
周期: 95.592分钟
每日圈数: 15.064064
详细信息
固有亮度:
5
最大亮度:
2.5
卫星平台:
Starlink V1.0
覆盖范围:
全球
运营商:
太空探索技术公司
运营商所在国:
美国
制造商(研发单位):
太空探索技术公司
制造商所在国:
美国
使用方式:
暂无
卫星简介
星链(Starlink)计划是由太空探索技术公司(SpaceX)提出的一个巨型低轨卫星互联网星座项目,计划在2019年至2024年间在太空搭建由约1.2万颗卫星组成的“星链”网络,其中1584颗将部署在地球上空550千米处的近地轨道,并从2020年开始工作。该卫星仍在工作。
2D轨道图
3D轨道图
轨道高度分析图
轨道倾角分析图
轨道综合分析图
查看轨道综合分析图